Home   Weather   Moss   Past weeks
Flag for Norway

Past Weather in Moss, Norway — Yesterday and Last 2 Weeks

Now
45 °F

Light rain. Passing clouds.


Feels Like: 41 °F
Forecast: 48 / 44 °F
Wind: 7 mph from North

Location: Rygge

Current Time: Oct 16, 2019 at 10:12:09 pm

Latest Report: Oct 16, 2019 at 9:20 pm


Visibility: 6 mi

Pressure: 29.74 "Hg

Humidity: 93%

Dew Point: 43 °F

Location of MossLocation

Past Weather in Moss — Graph

°F

Moss Temperature Yesterday

Maximum temperature yesterday: 45 °F (at 3:20 am)
Minimum temperature yesterday: 39 °F (at 12:20 am)
Average temperature yesterday: 44 °F

High & Low Weather Summary for the Past Weeks

 TemperatureHumidityPressure
High55 °F (Oct 12, 2:20 pm)100% (Oct 6, 4:20 am)30.33 "Hg (Oct 6, 4:20 am)
Low25 °F (Oct 7, 4:50 am)42% (Oct 5, 2:20 pm)29.24 "Hg (Oct 11, 10:50 pm)
Average42 °F85%29.77 "Hg
* Reported Oct 1 8:20 pm — Oct 16 8:50 pm, Moss. Weather by CustomWeather, © 2019

Note: Actual official high and low records may vary slightly from our data, if they occured in-between our weather recording intervals... More about our weather records

Advertising

Moss Weather History for the Previous 24 Hours

Scroll right to see more
 ConditionsComfort  
Time TempWeatherWind HumidityBarometerVisibility
8:50 pm
Wed, Oct 16
45 °FLight rain. Low clouds.6 mph93%29.74 "HgN/A
8:20 pm45 °FLight rain. Passing clouds.8 mph93%29.74 "HgN/A
7:50 pm45 °FRain. Passing clouds.8 mph93%29.74 "HgN/A
7:20 pm45 °FLight rain. Overcast.8 mph93%29.74 "Hg5 mi
6:50 pm45 °FRain. Passing clouds.8 mph93%29.74 "Hg5 mi
6:20 pm45 °FRain. Low clouds.8 mph93%29.74 "HgN/A
5:50 pm45 °FLight rain. Mostly cloudy.8 mph93%29.74 "HgN/A
5:20 pm45 °FDrizzle. Mostly cloudy.9 mph93%29.74 "HgN/A
4:50 pm45 °FLight rain. Partly sunny.9 mph93%29.74 "HgN/A
3:50 pm45 °FLight rain. Cloudy.10 mph93%29.74 "HgN/A
3:20 pm45 °FRain. More clouds than sun.8 mph93%29.74 "HgN/A
2:50 pm45 °FRain. Mostly cloudy.8 mph93%29.74 "HgN/A
2:20 pm45 °FRain. Mostly cloudy.8 mph93%29.74 "HgN/A
1:20 pm45 °FLight rain. More clouds than sun.8 mph93%29.74 "HgN/A
12:50 pm43 °FLight rain. Broken clouds.8 mph100%29.74 "HgN/A
12:20 pm43 °FRain. Partly sunny.8 mph100%29.74 "HgN/A
11:50 am43 °FDrizzle. Broken clouds.8 mph100%29.77 "Hg3 mi
11:20 am43 °FLight rain. Broken clouds.8 mph100%29.77 "HgN/A
10:50 am43 °FDrizzle. Broken clouds.9 mph93%29.77 "HgN/A
10:20 am43 °FDrizzle. Broken clouds.10 mph93%29.77 "HgN/A
9:50 am43 °FDrizzle. Broken clouds.10 mph93%29.77 "Hg5 mi
9:20 am43 °FLight rain. Partly sunny.10 mph93%29.74 "Hg3 mi
8:50 am43 °FPartly sunny.9 mph93%29.77 "Hg4 mi
8:20 am43 °FPartly sunny.9 mph93%29.77 "Hg4 mi
7:50 am43 °FMostly cloudy.10 mph93%29.74 "Hg3 mi
7:20 am43 °FDrizzle. Mostly cloudy.9 mph93%29.77 "Hg3 mi
6:50 am43 °FDrizzle. Mostly cloudy.8 mph93%29.77 "Hg2 mi
6:20 am43 °FDrizzle. Mostly cloudy.9 mph93%29.77 "Hg2 mi
5:50 am43 °FFog.8 mph93%29.77 "Hg2 mi
5:20 am43 °FFog.9 mph93%29.77 "Hg2 mi
4:50 am43 °FMostly cloudy.9 mph93%29.77 "Hg4 mi
4:20 am43 °FLow clouds.9 mph93%29.77 "Hg6 mi
3:50 am43 °FDrizzle. Mostly cloudy.12 mph93%29.77 "HgN/A
3:20 am43 °FDrizzle. Mostly cloudy.10 mph93%29.77 "HgN/A
2:50 am43 °FDrizzle. Mostly cloudy.10 mph93%29.77 "HgN/A
2:20 am43 °FDrizzle. Low clouds.8 mph93%29.77 "HgN/A
1:50 am43 °FDrizzle. Low clouds.9 mph100%29.77 "HgN/A
1:20 am43 °FLight rain. Partly cloudy.10 mph100%29.77 "HgN/A
12:50 am43 °FRain. Low clouds.10 mph100%29.80 "Hg5 mi
12:20 am43 °FRain. Mostly cloudy.9 mph100%29.80 "Hg4 mi
11:50 pm
Tue, Oct 15
43 °FRain. Partly cloudy.12 mph100%29.80 "Hg4 mi
11:20 pm45 °FRain. Fog.10 mph93%29.80 "Hg2 mi
10:50 pm45 °FPassing clouds.10 mph93%29.80 "Hg2 mi
10:20 pm45 °FPassing clouds.9 mph93%29.80 "Hg3 mi
Weather by CustomWeather, © 2019

See weather overview